Regional Weather Roundup
Issued by NWS

Home | Current Version | Previous Version | Graphics & Text | Print | Product List | Glossary On
Versions: 1 2 3 4 5 6 7 8 9 10 11 12 13 14 15 16 17 18 19 20 21 22 23 24 25 26 27 28 29 30 31 32 33 34 35 36 37 38 39 40 41 42 43 44 45 46 47 48 49 50
000
ASUS43 KLSX 051910
RWRMO

WEATHER SUMMARY FOR MISSOURI
NATIONAL WEATHER SERVICE SPRINGFIELD MO
200 PM CDT THU MAY 05 2016

NOTE: "FAIR" INDICATES FEW OR NO CLOUDS BELOW 12,000 FEET WITH NO
       SIGNIFICANT WEATHER AND/OR OBSTRUCTIONS TO VISIBILITY.
       CURRENT SKY AND/OR WEATHER CONDITIONS ARE NOT AVAILABLE FOR
       CHILLICOTHE AND FARMINGTON.

MOZ001>031-035>038-043-044-053-054-052000-
...NORTHERN AND WESTERN MISSOURI...

CITY           SKY/WX    TMP DP  RH WIND       PRES   REMARKS
KANSAS CTY INT CLOUDY    70  38  31 VRB6      30.08F
KANSAS C DTWN  SUNNY     73  39  29 N10       30.07F
LEE`S SUMMIT   SUNNY     70  37  29 N13       30.08F
ST JOSEPH      SUNNY     71  37  28 NE5       30.08F
CHILLICOTHE      N/A     70  35  27 VRB7      30.09F
KIRKSVILLE     MOSUNNY   66  34  30 N13       30.07F

$$
MOZ066>068-077>081-088>096-101>105-052000-
...SOUTHWEST MISSOURI...

CITY           SKY/WX    TMP DP  RH WIND       PRES   REMARKS
SPRINGFIELD    SUNNY     71  34  25 N16G23    30.05F
JOPLIN         SUNNY     72  45  37 N7        30.07F
BRANSON        SUNNY     70  37  30 N15G24    30.05F

$$
MOZ032>034-039>042-045>050-055>058-069>072-052000-
...CENTRAL MISSOURI...

CITY           SKY/WX    TMP DP  RH WIND       PRES   REMARKS
COLUMBIA       SUNNY     67  34  29 N15       30.06F
JEFFERSON CITY SUNNY     67  32  27 NW10      30.05F
ROLLA          SUNNY     65  40  39 NW12      30.03F
SEDALIA        SUNNY     70  30  22 NW9       30.08F
WHITEMAN AFB   MOSUNNY   68  34  27 N13       30.07F
WARRENSBURG    SUNNY     68  32  26 N7G18     30.08S
OSAGE BEACH    SUNNY     68  34  28 NW8       30.06S

$$
MOZ051-052-059>065-052000-
...EAST CENTRAL MISSOURI...

CITY           SKY/WX    TMP DP  RH WIND       PRES   REMARKS
ST LOUIS INTL  MOSUNNY   64  42  44 N16       30.03F
SPIRIT OF STL  MOSUNNY   63  42  46 N13       30.03F
ST CHARLES     SUNNY     63  45  51 N10G20    30.03S

$$
MOZ072>076-082>087-097>100-106>115-052000-
...SOUTH CENTRAL AND SOUTHEAST MISSOURI...

CITY           SKY/WX    TMP DP  RH WIND       PRES   REMARKS
CAPE GIRARDEAU MOSUNNY   65  43  44 N21G28    29.98S
FARMINGTON     MOSUNNY   62  41  46 NW8G20    30.02S
POPLAR BLUFF   SUNNY     68  40  35 N14G22    29.97F
WEST PLAINS    SUNNY     69  31  24 N13G24    30.02F

$$




USA.gov is the U.S. government's official web portal to all federal, state and local government web resources and services.